User: anonymous   Login
Location: Charbonni�res
(45.9952°N, 2.9982°E)
Time: 21:18:56
(UTC+00:00)
Language:

FENGYUN 1C DEB - Orbit

View from above orbital plane
View from above orbital plane
View from above satellite
View from above satellite

Ground track
Ground track

The orbit data is extracted from the following two-line orbital elements,

1 36735U 99025EBH 21173.65989677  .00000744  00000-0  25456-3 0  9990
2 36735  99.1191 125.4378 0095922 300.7242  58.4520 14.37043087709356
Epoch (UTC): 22 June 2021 15:50:15
Eccentricity: 0.0095922
inclination: 99.1191°
perigee height: 700 km
apogee height: 837 km
right ascension of ascending node: 125.4378°
argument of perigee: 300.7242°
revolutions per day: 14.37043087
mean anomaly at epoch: 58.4520°
orbit number at epoch: 70935

The dashed part of the orbit path shows where the satellite is in the earth's shadow,  

DLR